Presure
228 173 226 227 166 227 227 226 226 226 231 234 240 238 240 249 253 248 240 238 231 231 228 190 135 136 213 211 205 219 226 211 227 216 209 198 203 202 203 206 205 178 182 183
228 229 224 222 224 224 222 221 222 179 224 223 228 229 161 238 217 173 231 231 243 227 237 242 233 220 216 216 206 207 206 228 213 205 199 193 198 203 205 191 186 183 185 188
217 217 215 214 200 208 214 216 216 226 234 235 235 234 135 197 226 236 238 216 224 209 213 210 218 218 203 203 206 224 207 205 199 198 194 202 200 195 195 193 185 196 197 201
215 231 230 152 154 153 234 207 224 227 226 223 206 230 206 216 225 217 213 214 222 221 214 223 208 209 215 218 208 206 186 194 194 199 203 195 196 195 191 197 193 199 195 199
226 227 227 224 223 224 220 220 220 141 142 222 222 226 224 221 210 215 217 220 220 229 221 211 210 209 211 200 195 197 193 194 195 184 195 182 194 193 193 199 196 195 194 197
185 202 184 215 216 211 219 213 194 169 231 232 234 238 232 226 226 219 212 212 220 218 218 216 215 208 199 198 200 194 196 191 190 185 188 195 191 194 188 190 188 191 92 187
125 182 216 223 236 245 244 240 247 247 253 271 262 246 243 241 244 239 244 249 239 218 210 207 208 201 202 191 191 186 192 191 189 194 195 190 185 187 159 190 192 196 196 205
218 256 245 246 245 242 238 230 227 226 224 219 218 213 214 214 212 211 212 220 222 223 225 220 204 189 188 186 192 187 189 189 203 191 180 185 195 185 192 189 195 204 196 195
229 232 219 224 224 211 215 214 213 211 210 207 202 204 206 209 211 208 205 207 205 204 202 200 200 194 184 182 182 198 206 192 184 183 189 188 185 182 189 194 196 202 207 213
217 211 215 205 210 209 202 201 201 203 201 201 200 201 200 204 205 205 203 198 197 193 185 189 193 193 200 207 194 188 187 187 192 194 189 184 183 188 195 202 203 204 207 227
205 205 215 204 204 190 198 197 197 189 194 207 207 203 201 200 197 197 199 199 202 206 212 211 208 206 197 196 192 183 190 181 187 179 190 187 184 195 202 204 204 206 225 256
191 203 201 194 188 194 203 203 197 199 200 195 207 208 200 203 200 204 208 208 209 210 207 203 202 201 190 177 184 195 190 186 182 185 187 186 194 204 203 205 222 231 253 265
196 202 201 193 199 199 198 194 195 190 208 201 197 195 196 196 196 200 195 206 204 203 208 203 198 176 175 179 181 190 183 188 181 190 186 203 206 201 207 229 246 254 272 262
197 195 200 199 197 198 197 201 198 195 193 193 194 194 196 194 191 193 199 195 188 209 202 201 199 194 193 184 187 186 182 181 185 189 201 207 201 214 228 249 253 273 268 283
195 192 195 196 195 192 191 193 196 197 195 196 196 196 192 189 188 198 192 185 197 209 202 199 198 193 194 189 182 182 185 188 194 201 206 202 218 230 254 256 266 271 338 379
197 196 198 198 195 194 194 196 196 192 196 195 184 195 187 196 190 188 194 192 194 196 205 200 193 193 183 182 182 184 193 196 195 206 208 223 240 253 257 279 267 394 373 469
193 195 187 187 190 194 190 184 185 187 184 189 190 190 187 191 195 223 231 194 194 195 202 202 195 187 181 181 190 195 204 205 205 213 234 238 250 260 273 265 402 428 466 427
194 194 195 196 193 190 189 190 188 195 201 205 209 220 229 226 223 224 189 206 196 205 202 195 190 189 184 191 197 206 209 203 221 234 236 255 262 274 266 398 489 464 432 401
195 197 196 197 200 206 207 205 202 199 201 207 218 224 223 225 223 219 213 201 204 195 190 186 189 192 196 197 214 209 212 231 243 234 254 257 254 273 376 492 468 432 403 378
208 206 209 207 206 198 194 194 198 206 204 207 212 215 228 220 203 196 210 200 189 182 190 199 205 199 200 207 207 221 220 240 235 253 258 259 271 292 491 473 437 405 376 354
193 203 200 200 195 192 204 201 202 202 208 208 216 229 224 221 205 201 194 187 189 192 193 204 202 208 194 224 216 220 236 245 258 265 259 277 287 489 473 448 411 377 352 359
200 195 203 205 205 204 143 172 197 207 211 216 230 228 204 198 191 187 191 191 191 205 199 202 201 217 221 216 223 239 253 256 255 259 245 314 401 472 450 414 379 353 337 363
197 199 195 99 90 208 201 205 202 218 211 224 223 196 188 179 189 199 193 194 201 207 200 214 219 224 215 226 236 251 245 243 262 247 310 351 467 440 390 374 355 341 336 358
189 196 195 196 198 209 209 200 216 218 212 201 191 188 185 190 197 193 203 204 204 211 216 221 224 216 231 231 245 235 250 258 251 311 389 460 446 400 372 359 346 338 351 360
138 193 198 198 151 207 203 209 187 198 204 191 198 191 183 197 205 201 203 212 211 216 216 220 225 227 233 242 252 248 255 270 311 333 398 444 417 380 367 357 347 343 351 357
169 118 215 177 210 199 187 189 197 195 191 203 197 195 201 204 201 211 212 215 214 218 226 229 231 232 239 257 250 254 295 311 328 388 432 425 386 364 371 360 350 350 352 359
Wind_Speed
27 35 30 30 43 33 36 41 46 46 47 47 48 53 58 49 43 45 48 47 51 51 51 56 64 66 62 59 63 60 56 68 56 58 61 72 68 68 69 68 68 75 77 79
23 23 26 27 27 30 34 38 39 41 42 43 42 47 44 41 43 48 42 44 43 48 48 43 49 55 58 57 61 63 62 49 55 58 65 72 70 70 70 74 76 78 80 82
21 24 25 26 35 34 33 36 39 37 37 36 35 34 46 40 33 37 39 46 46 47 46 49 49 51 58 61 61 50 58 55 61 63 68 67 70 73 77 78 79 82 84 86
24 21 21 38 37 37 23 31 32 32 32 33 34 30 36 37 35 39 42 46 45 46 49 45 53 55 55 54 57 55 63 62 64 64 66 71 74 76 79 83 85 87 88 90
16 17 17 20 23 22 25 28 30 41 42 35 32 30 29 32 44 41 42 44 48 46 48 52 51 54 53 52 57 59 62 63 66 68 71 74 77 80 83 86 90 93 94 97
20 18 22 20 22 24 25 28 32 35 29 30 28 25 22 31 34 39 47 48 45 45 48 50 51 51 52 57 57 60 62 68 71 73 77 79 81 84 87 91 95 98 46 100
39 25 17 18 14 12 14 16 15 17 18 18 17 13 12 16 21 26 30 31 33 44 51 55 54 51 57 62 64 67 68 71 74 78 79 79 80 85 76 93 98 103 105 113
13 9 9 7 6 5 4 6 8 11 12 13 15 20 21 20 23 23 28 27 32 39 44 48 47 56 60 65 68 72 73 75 76 77 77 82 87 87 95 98 107 111 110 108
10 11 10 10 9 14 11 13 15 19 20 22 28 31 31 31 29 31 34 33 38 42 45 47 49 53 58 63 67 69 71 73 77 82 85 87 89 90 100 106 109 113 119 122
12 11 12 14 14 14 20 23 25 26 28 26 29 31 34 34 35 38 38 43 45 48 53 56 58 59 61 61 65 69 73 77 80 83 86 88 92 100 107 111 115 118 123 127
13 14 12 16 17 24 24 26 28 34 38 33 28 33 36 38 40 43 44 47 50 53 52 51 53 55 59 62 64 69 74 73 82 82 92 96 97 109 114 117 119 122 125 129
17 14 17 21 25 27 26 28 31 33 34 41 38 35 40 42 42 45 47 52 53 55 56 57 59 60 61 64 71 76 80 84 88 94 99 100 110 113 116 120 125 125 127 133
17 18 20 23 25 27 30 33 36 39 34 35 41 43 45 47 50 50 52 50 54 56 57 61 63 64 68 73 78 82 85 90 90 101 103 111 113 113 119 126 131 129 138 125
20 22 23 25 26 27 30 31 36 39 42 45 46 52 51 50 52 55 57 59 60 59 63 64 66 69 73 79 82 87 89 93 101 105 111 114 114 123 126 128 126 136 132 134
24 29 30 30 31 34 37 38 37 39 42 45 48 50 53 56 57 58 59 60 62 60 61 65 68 72 76 80 85 89 96 101 106 110 114 116 122 124 128 129 132 131 125 112
27 29 30 30 35 38 41 41 41 44 47 47 46 51 52 57 60 61 63 63 63 66 66 68 72 75 80 84 89 95 100 105 110 112 116 120 124 129 131 136 131 117 110 66
34 34 37 39 40 41 44 45 47 50 53 55 57 55 55 59 62 63 63 63 66 68 70 70 75 81 84 89 96 100 102 106 110 115 122 125 130 132 135 131 115 89 58 58
38 40 42 44 44 45 49 51 52 56 59 60 62 64 60 60 63 62 63 65 68 67 69 73 79 85 90 95 99 102 105 109 116 121 124 132 133 136 132 117 62 56 52 53
42 44 46 47 48 47 48 48 50 55 61 61 62 62 60 60 59 60 61 66 66 70 75 80 85 90 94 98 102 105 111 120 122 122 130 130 130 135 118 59 51 51 52 54
38 40 42 45 45 44 48 52 54 57 61 63 65 66 66 64 60 64 62 65 71 76 81 85 89 94 98 101 105 112 116 125 122 131 131 133 133 128 61 50 47 49 54 57
43 41 44 46 45 49 50 53 55 58 59 59 65 65 64 63 63 66 70 75 80 83 88 90 94 98 93 108 109 115 126 129 133 133 132 130 125 65 53 47 47 52 55 51
45 43 47 48 51 48 36 42 54 60 59 63 66 62 58 63 69 74 77 80 84 87 89 93 97 105 108 108 116 127 128 131 131 132 121 119 100 56 50 49 52 55 57 47
47 49 47 17 21 59 49 54 57 62 61 68 64 58 65 69 75 77 80 85 89 92 93 102 107 110 107 117 125 129 124 125 135 118 116 116 62 55 59 55 56 57 57 47
54 54 53 54 60 66 63 57 64 63 63 61 62 67 70 74 77 80 86 90 93 98 105 108 110 109 119 123 131 118 131 134 119 119 108 69 57 58 57 55 55 56 50 43
38 61 62 61 46 65 65 68 54 60 64 65 68 69 71 79 84 86 91 97 99 106 106 111 114 117 123 131 132 130 134 119 122 120 93 62 55 57 54 52 52 51 46 41
55 23 73 56 70 62 58 60 62 66 66 72 72 75 81 84 86 94 97 103 104 111 115 119 119 123 130 132 128 130 114 123 123 96 68 57 55 55 49 48 47 44 42 37
Wind_Direction
221 247 232 237 257 240 243 245 248 252 256 257 259 262 264 268 273 271 272 277 274 274 272 281 289 290 282 283 280 274 270 282 274 275 281 284 287 291 291 289 287 299 299 297
221 223 230 235 239 240 242 247 251 262 256 256 257 261 275 271 272 278 277 273 264 277 273 267 273 280 279 278 279 279 283 273 281 282 284 288 290 290 289 290 294 294 294 293
220 227 232 236 239 241 245 252 255 258 263 269 266 264 281 278 279 277 273 274 276 277 276 276 274 272 279 281 279 279 282 283 284 285 288 289 289 289 290 291 295 294 295 294
219 227 231 256 260 262 248 253 259 263 258 269 272 275 270 273 273 268 273 276 277 274 271 267 271 273 269 271 277 277 282 287 290 292 291 293 293 294 296 297 299 298 298 298
219 222 220 228 238 240 244 249 251 273 275 263 269 270 274 276 280 282 276 274 275 276 274 277 279 276 279 286 286 290 294 292 292 298 297 299 298 298 300 301 301 301 302 304
250 240 255 234 242 247 245 253 263 269 264 270 278 284 278 270 273 271 278 282 283 284 285 286 283 287 287 286 292 293 296 298 299 301 299 297 300 303 304 303 303 303 317 305
270 251 229 229 234 243 254 266 276 279 284 289 294 292 272 277 279 279 283 286 282 274 277 281 290 296 293 298 298 302 299 298 299 298 298 300 301 301 299 302 303 303 305 304
220 180 187 182 184 195 229 258 268 276 289 290 287 278 275 265 268 276 276 281 277 279 279 280 285 291 294 298 295 299 296 295 294 298 301 303 304 306 305 307 306 304 305 307
186 173 218 195 196 250 248 258 268 275 279 282 284 289 292 291 289 283 284 285 281 282 284 283 281 286 290 288 291 289 291 296 298 302 303 303 306 308 308 305 305 304 303 304
196 222 209 249 242 253 266 271 276 278 280 280 286 288 288 289 291 290 288 287 289 289 293 294 293 290 289 292 295 298 300 300 297 299 304 308 309 308 306 305 305 307 307 307
237 236 220 254 261 281 276 280 281 293 290 291 287 290 291 294 296 295 294 293 291 292 292 291 290 290 293 292 293 297 297 302 306 309 305 307 309 308 307 307 308 307 307 309
264 253 258 273 285 283 280 284 284 289 297 300 296 294 296 299 299 303 304 303 302 301 300 300 299 300 299 301 304 303 305 308 310 310 311 311 307 306 307 307 306 308 311 312
269 265 268 275 278 281 284 288 290 293 293 291 296 299 301 304 306 305 306 304 304 303 301 300 302 306 308 308 309 306 310 309 311 309 310 306 306 307 307 310 312 313 312 313
268 273 270 273 274 276 279 285 291 296 300 302 302 303 303 303 304 305 305 306 307 306 303 303 302 302 302 306 306 308 309 310 309 308 305 306 308 308 310 311 314 314 314 313
275 281 282 285 288 288 288 288 290 290 292 293 295 295 299 304 305 305 308 307 306 306 301 300 299 300 303 306 308 308 307 307 306 306 308 308 308 308 313 315 316 316 310 314
277 276 278 278 280 281 285 290 295 296 294 293 296 293 300 299 302 305 305 304 305 305 303 301 303 304 307 307 307 307 305 306 308 307 306 307 310 315 316 314 318 316 315 308
284 283 283 286 288 290 294 295 296 296 297 298 298 300 302 302 301 305 305 303 304 305 304 303 302 305 308 307 305 305 306 306 307 307 311 313 315 315 316 320 318 316 314 311
285 285 286 286 289 291 292 293 295 297 298 301 302 306 308 306 306 307 303 304 303 304 305 303 304 305 306 305 305 306 307 307 310 314 315 315 317 317 320 320 317 317 315 314
283 283 286 290 291 294 297 299 300 298 298 301 305 304 304 304 305 307 305 304 306 306 305 307 305 304 304 305 310 309 310 314 315 314 316 318 319 318 323 319 317 316 317 318
286 290 294 293 294 294 295 296 300 303 302 306 307 306 309 309 307 304 306 305 305 306 306 306 307 306 309 310 310 314 313 315 314 317 317 319 317 321 320 318 316 317 319 320
283 289 289 292 292 289 295 295 299 299 301 304 306 309 308 309 306 306 306 307 307 308 309 310 309 309 310 315 314 314 316 316 316 317 319 319 322 321 319 317 317 319 320 322
285 286 293 295 293 294 298 301 296 301 305 306 309 309 305 304 304 307 307 306 307 308 309 309 310 314 315 314 315 317 317 317 318 319 320 325 324 319 318 319 321 321 322 324
293 295 288 299 313 302 296 300 297 306 305 308 308 301 302 308 304 306 304 306 308 310 310 314 315 315 314 316 316 318 318 320 318 321 325 326 318 318 321 321 321 322 323 324
291 293 289 292 294 300 302 296 304 305 303 300 300 300 302 302 305 306 308 310 312 314 316 315 315 314 316 316 317 318 319 318 321 326 324 320 318 320 321 320 320 322 324 322
284 288 291 292 299 298 297 299 302 301 299 298 296 300 304 306 310 311 311 313 315 317 315 315 315 317 317 316 316 317 317 323 327 325 324 320 319 320 319 318 319 321 322 321
286 273 289 296 292 293 296 298 299 298 300 301 302 304 307 310 310 312 314 316 316 315 316 317 317 316 316 314 316 316 325 328 325 324 321 319 320 320 317 316 318 319 321 320